Location: Peebles
(55.6412°N, 3.1714°W)
Time: 16:39:26
(UTC+01:00)

USA 238 DEB - Pass Details

Date: 19 January 2022
Orbit: 969 x 1243 km, 63.4° (Epoch: 04 May)

Event Time Altitude Azimuth Distance (km) Brightness Sun altitude
Rises 20:49:00 0° 271° (W) 3,769 7.4 -36.8°
Reaches altitude 10° 20:51:41 10° 278° (W) 2,852 6.6 -37.2°
Enters shadow 20:57:08 44° 326° (NNW) 1,466 4.6 -37.9°
